Regional Weather Roundup
Issued by NWS

Home | Current Version | Previous Version | Text Only | Print | Product List | Glossary Off
Versions: 1 2 3 4 5 6 7 8 9 10 11 12 13 14 15 16 17 18 19 20 21 22 23 24 25 26 27 28 29 30 31 32 33 34 35 36 37 38 39 40 41 42 43 44 45 46 47 48 49 50

000
ASUS45 KBOU 090907
RWRCO

WEATHER ROUNDUP FOR COLORADO
NATIONAL WEATHER SERVICE DENVER/BOULDER CO
200 AM MST FRI DEC 09 2016

NOTE: "FAIR" INDICATES FEW OR NO CLOUDS BELOW 12000 FEET WITH NO
SIGNIFICANT WEATHER AND/OR OBSTRUCTIONS TO VISIBILITY.

COZ001>005-013-030-031-091000-
...NORTHWEST COLORADO...

CITY           SKY/WX    TMP DP  RH WIND       PRES   REMARKS
CRAIG          CLOUDY    24  16  71 E5        30.17R WCI  18
HAYDEN         CLOUDY    19  12  73 SE10      30.17R WCI   8
MEEKER         CLOUDY    33  18  53 W6        30.19S WCI  28
MOUNT WERNER   NOT AVBL
STEAMBOAT SPGS CLOUDY    15  13  90 CALM      30.16S
WALDEN           N/A     23  19  86 S3        30.10S
$$

COZ006>008-011-091000-
...WEST CENTRAL VALLEYS...

CITY           SKY/WX    TMP DP  RH WIND       PRES   REMARKS
GRAND JUNCTION FAIR      21  15  78 CALM      30.28S
MONTROSE       CLOUDY    27  18  69 SE5       30.27F WCI  22
EAGLE          LGT SNOW  20  18  92 E8        30.24S FOG     WCI  10
RIFLE          CLOUDY    24  14  65 CALM      30.28S
DELTA          NOT AVBL
NUCLA          CLOUDY    30  18  59 CALM      30.31R
$$

COZ017>023-064>068-091000-
...SOUTHWEST COLORADO...

CITY           SKY/WX    TMP DP  RH WIND       PRES   REMARKS
DURANGO        CLOUDY    24  15  68 CALM      30.29S
CORTEZ         CLOUDY    30  24  78 E5        30.29R WCI  25
PAGOSA SPRINGS MOCLDY    22  13  66 CALM      30.29F
TELLURIDE      CLOUDY    29  27  91 S6        30.27S WCI  23
WOLF CREEK PAS FAIR      10   9  92 SW17      30.28F WCI  -7
$$

COZ009-010-012-014-032>034-037-058>063-091000-
...CENTRAL COLORADO...

CITY           SKY/WX    TMP DP  RH WIND       PRES   REMARKS
ASPEN          NOT AVBL
BUENA VISTA    FAIR      33  18  54 NW14G28   30.12S WCI  23
COPPER MTN     SNOW      23  18  80 MISG      30.14R VSB 1/2
BERTHOUD PASS  HVY SNOW  14   1  57 MISG      30.06R VSB 1/4
COTTONWOOD PAS LGT SNOW  30  23  74 NW14G32   30.11R WCI  20
GUNNISON       FLURRIES  16  14  92 CALM      30.29S
KREMMLING      LGT SNOW  23  19  86 E8        30.16S WCI  14
LEADVILLE      LGT SNOW  22  19  89 NE6       30.13S VSB 3/4 WCI  14
MONARCH PASS   CLOUDY    18  14  86 W37G44    30.28F WCI  -4
SALIDA         CLOUDY    33  17  50 SW9G16    30.22R WCI  26
SUNLIGHT       CLOUDY    19  18  93 SW22G32   30.21R WCI   3
WILKERSON PASS FAIR      19  18  93 W15G23    30.09R WCI   5
$$

COZ069>075-091000-
...SAN LUIS VALLEY/SANGRE DE CRISTO MOUNTAINS...

CITY           SKY/WX    TMP DP  RH WIND       PRES   REMARKS
ALAMOSA        FAIR       3  -2  79 E3        30.24S
LA VETA PASS   FAIR      19  12  73 NE29G48   30.09F WCI   1
SAGUACHE       FAIR      12   9  85 NW8       30.24F WCI   1
$$

COZ035-036-038>040-091000-
...NORTHERN COLORADO FRONT RANGE...

CITY           SKY/WX    TMP DP  RH WIND       PRES   REMARKS
DENVER INTL AP FAIR       5   1  83 VRB3      30.11S
DMNS CITY PARK   N/A      7   3  82 E7        30.12F WCI  -5
AURORA         PTCLDY     2  -1  86 CALM      30.10S
FRONT RANGE AP FAIR       9   5  85 W3        30.11S
ERIE MUNI ARPT FAIR       2  -1  87 CALM      30.13F
BOULDER MUN AP FAIR       9   5  85 CALM      30.11F
CENTENNIAL     FAIR       7   4  87 CALM      30.08R
BROOMFIELD     FAIR       5   1  85 S3        30.09F
FORT COLLINS   FAIR       7   5  92 CALM      30.13F
LONGMONT       FAIR       3  -1  81 CALM      30.16F
$$

COZ041-046-047-076>085-087-088-091000-
...PIKES PEAK/PALMER DIVIDE AND SOUTHERN FOOTHILLS...

CITY           SKY/WX    TMP DP  RH WIND       PRES   REMARKS
COLO. SPRINGS  FLURRIES   6   1  80 NW6       30.13F WCI  -4
A. F. ACADEMY  FAIR       7   1  78 CALM      30.10S
SCHRIEVER AFB  NOT AVBL
ELLICOTT       LGT RAIN N/A N/A N/A CALM        N/A
FALCON         FAIR       6   3  87 W9        30.08S WCI  -8
FORT CARSON    CLOUDY     5   0  78 N3        30.12F
LIMON          FAIR       1  -2  87 SE6       30.16F WCI -10
MONUMENT HILL  FAIR      18  10  73 SW12      30.04S WCI   5
TRINIDAD       FAIR      21  11  65 W22       30.13F WCI   5
$$

COZ042>045-048>051-090-091-091000-
...NORTHEAST COLORADO...

CITY           SKY/WX    TMP DP  RH WIND       PRES   REMARKS
GREELEY ARPT   FAIR       7   2  80 VRB3      30.18F
AKRON          CLOUDY    11   2  67 S13       30.18F WCI  -4
BURLINGTON     FAIR       8   0  69 S13       30.27F WCI  -8
WRAY           CLOUDY    12   5  73 S9        30.30F WCI   0
STERLING       FAIR      14   9  79 S7        30.22F WCI   4
HOLYOKE        FAIR      12   5  73 SE8       30.30F WCI   1
FORT MORGAN    FAIR      11   3  70 SE7       30.18F WCI   0
$$

COZ086-089-092>099-091000-
...SOUTHEAST COLORADO...

CITY           SKY/WX    TMP DP  RH WIND       PRES   REMARKS
PUEBLO         FAIR      10   1  67 NW6       30.21F WCI   0
LA JUNTA       FAIR       9   4  80 CALM      30.23F
LAMAR          FAIR      13   5  70 S6        30.26F WCI   4
SPRINGFIELD      N/A     20  12  71 S17       30.24F WCI   5
$$



USA.gov is the U.S. government's official web portal to all federal, state and local government web resources and services.